星链-5851 (STARLINK-5851 )

导读

STARLINK-5851是美国SpaceX公司星链(Starlink)星座的一员,于2023年3月17日发射升空。星链项目旨在通过低轨卫星星座为全球提供高速低延迟宽带互联网服务,弥补偏远地区基础设施不足。 作为星链互联网卫星,STARLINK-5851运行在近地轨道,通过星地组网为包括个人流媒体、视频通话、在线游戏等日常应用提供网络支持,助力实现全球覆盖的互联网接入目标,是SpaceX大规模星座部署中的组成部分。

基本信息
目录编号:
55947
目录名称:
STARLINK-5851
国际标识:
2023-037AK
轨道中心:
EARTH
卫星名称:
星链-5851
卫星全名:
星链-5851 (STARLINK-5851 )
卫星状态:
已陨落 最后检测时间 2026-05-06
发射日期:
2023-03-17 UTC
国别 :
美国 (US)
星等 :
--
轨道信息
数据来源 国际轨道数据
星历时间: 2026-05-06T19:44:05+0800
轨道信息已过期39天
半长轴: 6524.792km
偏心率: 0.00145
轨道倾角: 69.975°
近地点辐角 248.131°
升交点赤经 115.262°
平近点角 111.838°
近地点: 137.194km
远地点: 156.116km
周期: 87.420分钟
每日圈数: 16.472246
详细信息
固有亮度:
5
最大亮度:
2.5
卫星平台:
Starlink v1.5
覆盖范围:
全球
运营商:
太空探索技术公司
运营商所在国:
美国
制造商(研发单位):
太空探索技术公司
制造商所在国:
美国
使用方式:
暂无
卫星简介
星链(Starlink)计划是由太空探索技术公司(SpaceX)提出的一个巨型低轨卫星互联网星座项目,计划在2019年至2024年间在太空搭建由约1.2万颗卫星组成的“星链”网络,其中1584颗将部署在地球上空550千米处的近地轨道,并从2020年开始工作。该卫星仍在工作。